SKYSAT-C6

Last updated on Thu Oct 16 2025 00:02:30 GMT+0000 (Coordinated Universal Time)

1 42992U 17068F 25288.34246323 .00013260 00000+0 44236-3 0 9993 2 42992 97.4268 59.7141 0002433 173.9832 186.1439 15.31190458444827
UTC large
Height (km)
Speed (km/s)
/
Latitude / Longitude
Inclination (degrees)
Orbital Period (minutes)
Azimuth
Elevation
Range (km)
Doppler Factor

Next 0 passes for location: London (51.5072 / 0.1276)

Sorry there are no passes over London.